TimeMST,TemperatureF,Dew PointF,Humidity,Sea Level PressureIn,VisibilityMPH,Wind Direction,Wind SpeedMPH,Gust SpeedMPH,PrecipitationIn,Events,Conditions,WindDirDegrees,DateUTC
12:53 AM,23.0,16.0,74,30.49,10.0,East,6.9,-,N/A,,Clear,80,2013-11-07 07:53:00
1:53 AM,21.0,16.0,81,30.48,10.0,NE,5.8,-,N/A,,Clear,50,2013-11-07 08:53:00
2:53 AM,19.9,15.1,81,30.49,10.0,Calm,Calm,-,N/A,,Clear,0,2013-11-07 09:53:00
3:53 AM,19.0,15.1,85,30.50,10.0,ENE,4.6,-,N/A,,Clear,70,2013-11-07 10:53:00
4:53 AM,18.0,14.0,84,30.53,10.0,Calm,Calm,-,N/A,,Clear,0,2013-11-07 11:53:00
5:53 AM,19.0,15.1,85,30.54,10.0,Calm,Calm,-,N/A,,Clear,0,2013-11-07 12:53:00
6:53 AM,18.0,14.0,84,30.58,10.0,Calm,Calm,-,N/A,,Clear,0,2013-11-07 13:53:00
7:53 AM,27.0,19.0,72,30.55,10.0,NE,3.5,-,N/A,,Clear,50,2013-11-07 14:53:00
8:53 AM,36.0,21.0,55,30.52,10.0,ENE,4.6,-,N/A,,Clear,70,2013-11-07 15:53:00
9:53 AM,43.0,18.0,37,30.49,10.0,Calm,Calm,-,N/A,,Clear,0,2013-11-07 16:53:00
10:53 AM,48.0,17.1,29,30.45,10.0,Calm,Calm,-,N/A,,Clear,0,2013-11-07 17:53:00
11:53 AM,51.1,17.1,26,30.41,10.0,SSW,8.1,-,N/A,,Clear,200,2013-11-07 18:53:00
12:53 PM,53.1,18.0,25,30.35,10.0,SW,10.4,-,N/A,,Clear,220,2013-11-07 19:53:00
1:53 PM,55.0,17.1,23,30.32,10.0,SW,8.1,-,N/A,,Clear,220,2013-11-07 20:53:00
2:53 PM,55.9,18.0,23,30.30,10.0,WNW,8.1,-,N/A,,Clear,290,2013-11-07 21:53:00
3:53 PM,54.0,18.0,24,30.30,10.0,NW,4.6,-,N/A,,Clear,320,2013-11-07 22:53:00
4:53 PM,50.0,19.0,29,30.32,10.0,SSW,4.6,-,N/A,,Clear,210,2013-11-07 23:53:00
5:53 PM,42.1,18.0,38,30.33,10.0,Calm,Calm,-,N/A,,Clear,0,2013-11-08 00:53:00
6:53 PM,32.0,19.0,59,30.38,10.0,ENE,8.1,-,N/A,,Clear,60,2013-11-08 01:53:00
7:53 PM,32.0,19.9,61,30.33,10.0,ENE,9.2,-,N/A,,Clear,60,2013-11-08 02:53:00
8:53 PM,28.9,19.0,67,30.31,10.0,ENE,4.6,-,N/A,,Clear,60,2013-11-08 03:53:00
9:53 PM,26.1,19.0,75,30.29,10.0,NE,3.5,-,N/A,,Clear,40,2013-11-08 04:53:00
10:53 PM,25.0,18.0,75,30.25,10.0,NE,4.6,-,N/A,,Clear,40,2013-11-08 05:53:00
11:53 PM,25.0,18.0,75,30.24,10.0,Calm,Calm,-,N/A,,Clear,0,2013-11-08 06:53:00